Hourly Weather Roundup
Issued by NWS Central Illinois

Home | Current Version | Previous Version | Text Only | Print | Product List | Glossary On
Versions: 1 2 3 4 5 6 7 8 9 10 11 12 13 14 15 16 17 18 19 20 21 22 23 24 25 26 27 28 29 30 31 32 33 34 35 36 37 38 39 40 41 42 43 44 45 46 47 48 49 50
000
NZUS43 KILX 191310
HWRILX

Area Weather Roundup
National Weather Service Lincoln IL
800 AM CDT THU APR 19 2018

NOTE:  "FAIR" indicates few or no clouds below 12,000 feet, with
       no sigificant weather and/or obstructions to visibility.


CITY           SKY/WX    TMP DP  RH WIND       PRES   REMARKS
Bloomington    CLOUDY    35  31  85 N15       30.27R WCI  25
Champaign      CLOUDY    37  33  85 N14       30.24R WCI  28
Danville       CLOUDY    36  34  93 N14       30.19R WCI  27
Decatur        CLOUDY    37  32  82 NW13      30.26R WCI  29
Effingham      CLOUDY    37  32  83 NW16      30.27R WCI  27
Flora          CLOUDY    38  30  72 NW12G18   30.26R WCI  31
Galesburg      FAIR      39  35  84 N14       30.32R WCI  31
Jacksonville   CLOUDY    36  31  83 N14       30.31R WCI  27
Lacon          FAIR      35  29  80 N10       30.30R WCI  27
Lawrenceville  CLOUDY    38  30  73 NW17      30.23R WCI  28
Litchfield     CLOUDY    35  31  85 NW12      30.28R WCI  27
$$


CITY           SKY/WX    TMP DP  RH WIND       PRES   REMARKS
Lincoln        CLOUDY    37  33  84 N7        30.29R WCI  32
Macomb         CLOUDY    37  32  82 N13       30.33R WCI  28
Mattoon        CLOUDY    35  32  88 NW16      30.23R WCI  25
Mt Carmel AP   CLOUDY    37  31  78 NW13G18   30.23R WCI  29
Olney-Noble AP CLOUDY    36  30  78 NW15      30.25R WCI  27
Paris AP       CLOUDY    36  33  92 NW9       30.22R WCI  29
Peoria         FAIR      37  30  75 N12G18    30.30R WCI  29
Pontiac        FAIR      35  34  95 N14       30.27R WCI  26
Rantoul        PTSUNNY   38  35  88 N15       30.23R WCI  30
Robinson       CLOUDY    36  32  84 NW15      30.24R WCI  27
Springfield    CLOUDY    38  32  79 N13       30.30R WCI  30
Taylorville    CLOUDY    36  32  87 N14       30.27R WCI  27
$$

...REGIONAL REPORTS...


CITY           SKY/WX    TMP DP  RH WIND       PRES   REMARKS
Chicago O`Hare FAIR      34  26  72 N10       30.23R WCI  26
Kankakee       FAIR      36  32  86 N14       30.24R WCI  27
La Salle       FAIR      35  29  80 N14       30.29R WCI  25
Moline         FAIR      37  30  75 N6        30.32R WCI  32
Mount Sterling CLOUDY    34  31  88 N9        30.31R WCI  27
Mount Vernon     N/A     37  28  70 VRB5      30.27R WCI  33
Pittsfield     CLOUDY    36  32  84 N7        30.33R WCI  31
Quincy         CLOUDY    37  31  78 N10       30.32R WCI  30
Rockford       FAIR      32  23  69 N13       30.30R WCI  22
$$


CITY           SKY/WX    TMP DP  RH WIND       PRES   REMARKS
Burlington     CLOUDY    37  31  78 N9        30.31R WCI  30
Cedar Rapids   FAIR      33  27  78 N9        30.33R WCI  25
Des Moines     MOSUNNY   35  27  72 N6        30.39R WCI  30
Kirksville     SUNNY     34  31  88 NW7       30.36R WCI  28
Ottumwa        SUNNY     33  28  81 N9        30.35R WCI  25
St Louis       CLOUDY    38  29  70 N9        30.31R WCI  31
$$


CITY           SKY/WX    TMP DP  RH WIND       PRES   REMARKS
Terre Haute    MIX PCPN  36  33  89 NW9       30.20R WCI  29
Evansville     CLOUDY    38  29  70 NW14G25   30.24R WCI  30
Indianapolis   CLOUDY    37  30  75 N15       30.14R WCI  28
Lafayette      PTSUNNY   37  32  82 N15       30.19R WCI  28
Madison        FAIR      28  21  75 N9        30.30R WCI  19
Milwaukee      FAIR      35  23  61 NW12      30.25R WCI  27
$$





USA.gov is the U.S. government's official web portal to all federal, state and local government web resources and services.